This is the latest recevied weather packets stored in our database for station/object W1HS. If no packets are shown the sender has not sent any weather packets the latest 10 day(s).
| Time | Temp. | Humidity | Pressure | Rain* | Wind** | Luminosity | Snow |
|---|---|---|---|---|---|---|---|
| 1777858521 | 6.67° C | 49% | 989.2 hPa | 0 mm | - | 0 W/m² | - |
| 1777857919 | 6.67° C | 48% | 989 hPa | 0 mm | - | 0 W/m² | - |
| 1777857319 | 6.67° C | 49% | 988.9 hPa | 0 mm | - | 0 W/m² | - |
| 1777856718 | 6.67° C | 49% | 988.7 hPa | 0 mm | - | 0 W/m² | - |
| 1777856119 | 6.67° C | 49% | 988.6 hPa | 0 mm | - | 0 W/m² | - |
| 1777855527 | 6.67° C | 49% | 988.5 hPa | 0 mm | - | 0 W/m² | - |
| 1777854919 | 6.67° C | 48% | 988.5 hPa | 0 mm | - | 0 W/m² | - |
| 1777854319 | 7.22° C | 48% | 988.4 hPa | 0 mm | - | 0 W/m² | - |
| 1777853718 | 7.22° C | 48% | 988.3 hPa | 0 mm | - | 0 W/m² | - |
| 1777853122 | 7.78° C | 47% | 988.2 hPa | 0 mm | - | 0 W/m² | - |
| 1777852518 | 7.78° C | 46% | 988.1 hPa | 0 mm | - | 0 W/m² | - |
| 1777851918 | 8.33° C | 46% | 988 hPa | 0 mm | - | 9 W/m² | - |
| 1777851318 | 8.33° C | 45% | 987.9 hPa | 0 mm | - | 15 W/m² | - |
| 1777850718 | 8.89° C | 45% | 988 hPa | 0 mm | - | 30 W/m² | - |
| 1777850119 | 8.89° C | 46% | 988 hPa | 0 mm | - | 53 W/m² | - |
| 1777849522 | 8.89° C | 44% | 988 hPa | 0 mm | - | 33 W/m² | - |
| 1777848927 | 8.89° C | 45% | 987.8 hPa | 0 mm | - | 118 W/m² | - |
| 1777848320 | 8.89° C | 43% | 987.9 hPa | 0 mm | - | 42 W/m² | - |
| 1777847718 | 9.44° C | 43% | 987.9 hPa | 0 mm | - | 225 W/m² | - |
| 1777847120 | 9.44° C | 44% | 987.9 hPa | 0 mm | - | 290 W/m² | - |
| 1777846519 | 9.44° C | 46% | 987.8 hPa | 0 mm | - | 362 W/m² | - |
| 1777845922 | 8.89° C | 47% | 987.8 hPa | 0 mm | - | 139 W/m² | - |
| 1777845318 | 8.89° C | 45% | 987.7 hPa | 0 mm | - | 149 W/m² | - |
| 1777844719 | 8.89° C | 45% | 987.6 hPa | 0 mm | - | 109 W/m² | - |
| 1777844118 | 8.33° C | 48% | 987.6 hPa | 0 mm | - | 162 W/m² | - |
* Rain latest hour (hover to see other rain measurements)
** Current wind speed in m/s (hover to see current wind gust speed)